Location: Indian Springs
(36.5700°N, 115.6700°W)
Time: 23:17:43
(UTC-07:00)

Daily predictions for brighter satellites

Satellite Brightness Start Highest point End
(mag) Time Altitude Azimuth Time Altitude Azimuth Time Altitude Azimuth
Cosmos 1980 Rocket 2.5 20:26:34 10° NNW 20:32:13 71° WSW 20:37:52 10° SSE
Meteor 1-24 Rocket 4.1 20:32:01 10° SSW 20:37:40 69° W 20:43:08 10° N
Cosmos 1697 Rocket 4.2 20:33:48 10° NW 20:38:54 35° WSW 20:43:58 10° SSW
Cosmos 1408 Rocket 4.1 20:36:13 10° SSW 20:40:37 66° W 20:44:59 10° N
Cosmos 540 Rocket 3.6 20:37:21 10° NNW 20:42:33 82° WSW 20:47:41 10° SSE
FENGYUN 3A 4.1 20:38:07 10° S 20:43:30 68° W 20:48:55 10° NNW
Cosmos 1553 Rocket 4.3 20:38:14 10° N 20:44:31 55° E 20:50:40 10° SSE
Cosmos 1674 4.0 20:45:09 10° SE 20:48:10 22° E 20:51:11 10° NE
Cosmos 332 Rocket 3.8 20:43:25 10° NNW 20:48:17 89° W 20:53:08 10° SSE
YAOGAN 11 4.1 20:44:38 10° SSE 20:48:55 86° WSW 20:53:17 10° NNW
USA 229 DEB 3.8 20:42:21 10° SSW 20:49:04 58° ESE 20:55:54 10° NE
USA 229 3.8 20:42:27 10° SSW 20:49:11 58° ESE 20:56:00 10° NE
DELTA 2 R/B(2) 2.7 20:51:15 10° WSW 20:52:49 58° SSE 20:54:45 10° ENE
Cosmos 1437 Rocket 3.8 20:49:57 10° NNE 20:53:16 28° ENE 20:56:07 13° SE
GPS 2-04 Rocket1 3.3 20:50:42 10° W 20:54:56 49° SSW 20:58:33 13° SE
H-2A R/B 4.1 20:52:43 10° SSW 20:56:21 39° W 20:59:57 10° NNW
Cosmos 968 Rocket 3.5 20:52:45 10° SSW 20:57:54 86° WNW 21:03:09 10° NNE
Cosmos 1151 Rocket 4.2 20:55:50 10° NNE 20:59:31 27° ENE 21:02:24 14° SE
Meteor 1-21 Rocket 4.1 21:03:49 10° S 21:09:21 84° E 21:14:54 10° N
H-2A R/B 2.2 21:08:17 10° SSE 21:12:48 89° WSW 21:17:22 10° NNW
COSMOS 2428 4.5 21:11:09 10° NNE 21:14:56 18° NE 21:18:35 10° E
Envisat 3.0 21:10:50 12° SSE 21:15:34 74° ENE 21:20:39 10° N
Cosmos 2292 4.3 21:16:41 10° N 21:19:40 74° W 21:22:21 14° S
Cosmos 1328 Rocket 3.8 21:15:37 10° NNW 21:20:03 70° W 21:24:27 10° S
Cosmos 2058 4.1 21:19:09 19° ESE 21:20:34 23° E 21:23:51 10° NE
DELTA 2 R/B (1) 3.8 21:15:45 10° WNW 21:21:17 68° N 21:26:42 11° E
Meteor 2-20 4.4 21:16:05 10° S 21:22:14 82° E 21:28:23 10° N
YAOGAN 6 3.5 21:20:33 21° ESE 21:22:16 33° ENE 21:25:33 10° N
Cosmos 371 Rocket 3.8 21:20:03 10° NNW 21:24:45 57° WSW 21:29:06 12° S
ERS-1 Rocket 3.8 21:20:07 10° S 21:24:59 50° W 21:29:53 10° NNW
Cosmos 2228 Rocket 4.1 21:21:18 10° NNW 21:25:33 45° W 21:29:51 10° SSW
Cosmos 1437 3.2 21:25:22 26° SSE 21:26:45 41° E 21:29:51 10° NNE
Cosmos 405 3.2 21:24:36 10° N 21:28:11 54° E 21:29:54 27° SE
SPOT 5 2.7 21:25:09 18° SSE 21:28:28 77° ENE 21:33:10 10° N
S3M 4.4 21:23:58 10° NNW 21:29:59 62° W 21:36:00 10° S
Cosmos 1777 Rocket 4.3 21:26:52 10° SSW 21:32:07 70° WNW 21:37:22 10° NNE
CZ-2C R/B 2.9 21:33:14 10° WSW 21:34:00 12° W 21:34:45 10° WNW
Cosmos 2219 Rocket 4.3 21:32:43 10° NNE 21:35:11 13° NE 21:37:38 10° ENE
MetOp-A 4.1 21:36:13 20° SSE 21:39:57 80° ENE 21:45:19 10° N
ARGOS 3.6 21:37:20 24° SE 21:40:16 45° ENE 21:45:23 10° N
SL-14 R/B 4.4 21:40:46 25° E 21:41:10 26° E 21:44:29 10° NNE
H-2A R/B 3.5 21:41:19 19° E 21:43:33 25° ENE 21:47:50 10° NNE
PSLV R/B 3.4 21:42:34 30° S 21:43:54 63° W 21:46:57 10° NNW
SL-08 RB Rocket 4.3 21:46:47 29° ESE 21:48:24 41° ENE 21:52:36 10° N
Cosmos 2219 3.2 21:43:39 10° S 21:49:18 63° ESE 21:54:59 10° NNE
ATLAS CENTAUR R/B 3.6 21:47:25 10° WNW 21:50:32 19° WSW 21:53:26 10° SSW
Delta 2 Rocket 2.7 21:51:25 10° WSW 21:54:51 61° S 21:55:06 58° SE
SPOT 1/Viking Rocket 3.5 21:52:44 29° SSE 21:55:23 76° ENE 22:00:32 10° N
Cosmos 1726 3.2 21:53:35 10° NNE 21:56:57 30° ENE 21:57:09 30° E
NOSS 3-1 (C) 3.4 21:51:27 10° SSW 21:57:05 57° ESE 22:03:15 10° NE
Cosmos 2322 3.7 21:54:23 10° NNW 22:00:08 84° ENE 22:02:51 33° SSE
FALCON 9 R/B 4.2 21:28:39 10° WSW 22:02:11 79° S 22:09:34 11° E
Cosmos 2237 Rocket 4.3 21:59:17 10° NNE 22:02:22 15° NE 22:05:04 11° E
Cosmos 1680 Rocket 3.4 21:57:41 10° NNW 22:02:57 85° ENE 22:05:13 35° SSE
USA 245 2.4 22:03:51 75° NW 22:03:51 75° NW 22:06:14 10° NNW
Cosmos 2322 Rocket 3.8 22:01:03 10° NW 22:05:43 28° WSW 22:10:02 11° SSW
Cosmos 923 Rocket 4.2 22:01:05 10° NNW 22:06:15 67° WSW 22:08:44 31° S
CZ-3A R/B 3.9 21:45:10 10° WSW 22:07:32 37° SSW 22:09:38 30° SSE
Cosmos 304 Rocket 3.8 22:04:50 10° NNW 22:09:40 77° WSW 22:11:25 39° S
Cosmos 2150 Rocket 4.1 22:11:47 38° SSE 22:13:40 58° ESE 22:19:01 10° NNE
CZ-4B R/B 4.1 22:09:32 10° N 22:14:43 58° WNW 22:19:28 12° SSW
Cosmos 1898 Rocket 3.5 22:13:30 42° SSE 22:14:57 57° ESE 22:20:02 10° NNE
CARTOSAT-1 4.2 22:14:27 37° E 22:14:59 38° ENE 22:19:00 10° N
SL-16 R/B 3.9 22:10:33 10° NW 22:15:04 25° WSW 22:19:09 12° SSW
Landsat 7 4.0 22:13:54 44° SE 22:15:05 58° ENE 22:19:46 10° N
NOAA 11 4.1 22:13:06 36° SSE 22:15:25 89° W 22:20:54 10° NNW
Cosmos 2360 Rocket 2.3 22:11:14 10° NNW 22:16:51 68° WSW 22:19:14 35° S
Meteor 1-11 4.2 22:15:56 27° S 22:19:12 90° W 22:24:59 10° N
Cosmos 1633 Rocket 2.9 22:19:20 57° SSE 22:20:05 71° E 22:24:27 10° NNE
Sich 1 2.9 22:19:29 55° SSE 22:20:24 77° E 22:24:50 10° N
DMSP B5D2-2 4.2 22:17:26 10° NNE 22:22:31 51° E 22:23:22 46° SE
Cosmos 858 Rocket 4.5 22:22:09 47° SSE 22:23:26 62° ESE 22:28:34 10° NNE
Cosmos 2315 Rocket 4.2 22:17:40 10° NNW 22:23:49 67° W 22:27:09 28° SSW
Terra 1.9 22:30:16 52° ESE 22:30:57 58° ENE 22:35:38 10° N
Cosmos 292 Rocket 4.4 22:27:55 10° N 22:32:25 41° ENE 22:32:54 39° E
Cosmos 1626 3.9 22:34:25 22° NE 22:34:25 22° NE 22:36:19 10° NNE
Meteor 1-4 Rocket 3.1 22:29:41 10° N 22:32:55 51° NE 22:32:55 51° NE
Cosmos 1300 3.0 22:31:14 10° NNW 22:35:00 57° W 22:35:14 56° WSW
Cosmos 2227 Rocket 2.7 22:39:32 40° E 22:39:32 40° E 22:44:35 10° NE
SeaSat 1 4.2 22:38:15 18° ENE 22:39:38 20° NE 22:43:12 10° N
Meteor 2-10 4.3 22:34:09 10° N 22:39:47 60° E 22:40:53 51° SE
CZ-4C R/B 3.7 22:43:31 51° WNW 22:43:31 51° WNW 22:46:34 10° NNW
USA 32 4.0 22:40:42 10° N 22:45:59 85° W 22:47:02 59° S
Cosmos 2333 Rocket 3.0 22:42:39 10° N 22:48:00 38° ENE 22:49:11 34° E
Spot 2 4.3 22:44:03 10° NNE 22:49:12 82° ESE 22:49:48 69° S
SL-16 R/B 4.2 22:50:04 10° NNE 22:53:39 17° NE 22:55:32 15° ENE
Nadezhda 1 Rocket 3.9 22:49:50 10° N 22:55:55 73° E 22:57:05 58° SE
Cosmos 1455 3.3 22:54:21 10° N 22:56:59 37° NNE 22:56:59 37° NNE
NOSS 3-1 (A) 3.7 22:54:38 16° SW 22:59:25 65° NW 23:05:49 10° NNE
COSMOS 2428 2.8 22:54:02 10° NNW 22:59:38 63° WSW 23:00:36 54° SSW
Cosmos 1745 Rocket 4.1 23:01:49 43° SSW 23:03:56 71° W 23:10:09 10° N
Cosmos 2297 Rocket 2.6 23:07:31 46° E 23:07:31 46° E 23:12:19 10° NNE
DELTA 2 R/B (1) 3.6 23:02:19 10° WNW 23:07:27 61° SW 23:07:27 61° SW
Cosmos 1470 Rocket 3.8 23:09:03 64° WNW 23:09:03 64° WNW 23:13:06 10° N
Cosmos 1933 Rocket 3.8 23:10:28 66° WNW 23:10:28 66° WNW 23:14:45 10° N
Cosmos 1709 Rocket 4.0 23:12:07 57° ESE 23:12:32 58° E 23:18:30 10° NNE
Cosmos 1937 Rocket 4.2 23:16:58 38° WSW 23:18:27 50° WNW 23:23:31 10° N
Cosmos 2219 Rocket 2.0 23:14:15 10° NNW 23:19:52 88° WSW 23:20:07 82° S
ATLAS 2AS CENTAUR R/B 2.8 23:19:59 55° S 23:21:44 72° ESE 23:29:41 10° NE
H-2A R/B 3.0 23:21:57 37° WSW 23:22:40 38° W 23:27:42 10° NNW
COSMOS 2455 4.1 23:18:26 10° N 23:23:43 31° NE 23:25:14 27° E
Cosmos 1980 3.5 23:27:59 10° NNW 23:33:40 87° ENE 23:33:40 87° ENE
Cosmos 2181 Rocket 4.0 23:28:48 10° N 23:35:09 67° E 23:35:40 64° ESE
NOSS 0 Rocket 4.0 23:39:07 10° NNW 23:45:12 64° WSW 23:45:22 63° WSW
Cosmos 2082 4.2 23:45:28 47° WSW 23:46:33 54° WNW 23:52:10 10° NNE
Cosmos 2237 Rocket 2.2 23:41:23 10° NNW 23:46:53 78° W 23:46:53 78° W
ATLAS 3B R/B 3.3 23:41:02 10° NNW 23:47:43 46° NE 23:49:26 38° E
CZ-4B R/B 4.1 23:51:29 18° NNE 23:51:29 18° NNE 23:52:41 10° NNE
